View from above orbital plane
|
View from above satellite
|
Ground track
|
The orbit data is extracted from the following two-line orbital elements,
1 25544U 98067A 13139.30826478 .00029599 00000-0 51778-3 0 8382
2 25544 051.6479 251.5234 0009375 332.9506 068.6170 15.50334239830226
| Epoch (UTC): | 19 May 2013 07:23:54 |
| Eccentricity: | 0.0009375 |
| inclination: | 51.6479° |
| perigee height: | 409 km |
| apogee height: | 422 km |
| right ascension of ascending node: | 251.5234° |
| argument of perigee: | 332.9506° |
| revolutions per day: | 15.50334239 |
| mean anomaly at epoch: | 68.6170° |
| orbit number at epoch: | 83022 |
The dashed part of the orbit path shows where the satellite is in the earth's shadow,
|
|